Theta_e
316 316 317 317 314 310 309 309 309 309 309 309 309 309 310 310 310 309 309 309 309 310 310 312 307 310 320 323 322 324 323 314 319 317 319 325 332 343 348 342 343 351 355 354 353 352 350
316 316 316 317 317 315 313 311 309 309 309 309 309 309 309 309 309 310 310 310 310 311 311 313 307 312 322 324 325 329 325 321 317 317 318 327 335 337 338 344 347 350 353 354 354 354 351
315 315 315 316 317 317 319 318 315 310 308 309 309 309 309 309 310 311 311 311 311 312 313 310 308 320 323 325 325 322 321 318 315 316 319 321 328 334 333 349 348 350 356 356 355 354 356
315 315 314 314 313 315 317 318 318 316 310 308 308 309 309 311 312 312 312 312 315 316 312 309 316 322 322 320 324 322 321 318 315 315 316 319 323 331 338 350 353 355 353 356 355 355 354
315 314 313 313 313 313 314 315 316 317 316 312 309 309 310 311 311 312 312 314 320 313 313 317 324 323 326 320 321 323 323 323 318 316 315 316 322 333 343 350 350 352 351 352 359 353 355
317 316 314 314 313 313 313 313 314 316 317 317 314 310 309 310 312 312 313 317 319 321 322 321 322 326 323 325 322 323 322 318 318 317 316 321 330 335 339 345 345 344 345 350 357 355 356
318 317 317 315 315 315 314 313 313 313 314 316 316 314 310 311 312 312 315 319 326 327 324 325 325 324 324 323 320 323 321 315 316 317 318 323 329 333 335 340 336 339 342 350 351 354 356
317 317 318 317 316 316 316 314 313 313 313 314 316 315 311 313 311 313 317 323 321 320 326 323 324 324 324 324 322 324 320 322 316 318 319 324 326 330 332 338 337 337 345 350 351 351 353
317 317 317 317 317 317 317 316 315 313 313 313 314 315 312 313 312 317 320 321 317 319 327 325 325 325 325 325 323 323 324 323 320 319 319 321 324 330 330 333 336 338 341 345 347 351 351
316 316 317 317 317 316 316 316 315 315 314 313 313 315 313 311 317 318 320 317 317 318 329 326 326 326 325 323 323 322 323 324 322 321 321 322 326 328 331 331 334 336 338 345 345 347 352
316 315 317 317 317 316 316 315 315 315 315 314 313 314 313 311 317 320 319 317 318 321 329 326 325 324 323 324 323 323 323 323 322 322 323 324 325 328 330 330 331 336 339 343 343 346 348
317 316 317 317 317 316 316 315 315 314 314 315 314 313 313 314 314 316 317 318 320 329 328 327 325 325 325 325 323 323 323 323 322 322 322 324 323 326 327 329 330 336 340 344 344 344 348
317 317 318 318 317 317 316 315 315 315 314 315 315 311 314 313 322 318 317 323 330 326 324 326 327 327 326 326 324 324 323 323 323 324 323 322 323 323 325 327 329 334 336 340 342 346 347
317 317 317 317 317 316 316 316 316 316 315 315 314 312 318 317 316 316 321 328 327 324 324 324 326 328 328 326 326 324 323 324 324 324 324 323 323 323 326 327 330 333 333 335 344 350 350
321 318 316 317 317 316 316 316 316 316 315 315 313 318 320 319 318 318 326 327 325 324 324 324 327 328 328 327 328 325 324 326 326 327 328 324 326 326 330 327 330 331 334 333 338 342 345
321 320 317 316 317 315 315 315 315 316 315 315 316 322 323 319 319 322 328 323 326 324 324 323 326 327 329 328 328 326 326 327 327 326 326 327 330 333 336 337 333 336 333 337 336 346 349
319 318 317 316 317 315 315 314 314 315 315 315 319 323 321 318 319 327 327 325 325 324 324 324 324 327 327 329 329 327 328 329 328 327 326 328 329 335 339 341 339 338 337 336 335 339 351
320 318 317 316 316 315 313 313 312 313 314 317 317 323 320 318 327 327 327 325 319 324 322 323 324 325 327 327 329 329 329 330 326 326 328 327 329 331 333 330 331 339 340 337 338 342 342
321 320 318 317 316 314 312 311 311 310 312 315 321 322 321 321 328 327 326 324 325 324 323 321 322 322 326 326 329 328 328 327 327 327 329 327 329 331 331 332 332 333 335 337 335 341 343
322 321 318 317 315 313 311 311 311 311 312 314 320 324 325 325 326 327 327 326 326 324 323 320 322 324 326 326 326 328 328 327 326 328 325 326 328 330 331 333 333 333 336 336 334 333 333
321 320 319 318 313 312 311 312 311 311 312 315 318 321 326 327 326 326 327 327 326 323 323 322 324 323 324 325 325 326 326 327 326 326 328 328 332 331 333 334 332 333 335 336 336 338 337
320 319 318 317 314 312 312 312 312 311 313 318 323 324 327 330 330 329 324 328 326 325 322 323 324 322 323 324 323 326 326 326 326 327 327 326 332 333 335 334 335 332 332 332 337 338 340
320 318 318 316 313 311 312 312 312 311 313 318 317 319 324 324 329 330 328 327 326 325 321 321 322 323 323 324 325 324 324 326 327 328 327 327 329 332 332 334 332 335 336 336 337 340 339
318 318 318 315 312 311 311 312 312 312 311 314 313 317 320 321 324 329 328 328 328 327 323 319 321 324 324 324 323 324 325 326 326 327 326 328 328 328 330 334 333 335 336 337 338 341 344
317 317 317 314 311 310 311 311 311 311 311 313 312 316 319 322 320 323 329 331 330 326 323 319 322 323 324 323 323 323 324 326 325 327 325 328 328 329 329 330 329 330 335 335 335 336 339
317 316 316 313 310 310 311 311 311 311 311 313 313 312 317 322 322 321 327 329 331 324 321 321 316 321 320 321 322 325 321 322 323 326 326 326 330 329 329 329 330 333 334 333 333 332 336
316 315 314 313 310 309 309 312 312 312 311 312 313 311 315 320 319 322 323 326 327 322 321 321 318 318 320 322 323 323 324 327 325 326 329 328 328 328 328 329 327 331 331 331 335 337 335
315 313 313 313 310 309 309 311 312 312 311 312 314 311 314 320 320 319 321 327 328 324 323 322 319 320 320 323 323 325 325 329 327 327 327 326 327 327 328 330 331 330 331 333 335 335 335
314 312 312 312 309 309 309 311 312 313 312 311 313 312 312 314 319 317 318 319 321 323 327 322 325 322 323 324 325 326 326 329 325 326 330 326 324 328 326 331 333 331 332 331 332 335 336
Wind_Speed
14 14 13 13 12 12 12 12 12 11 10 10 10 10 11 12 13 14 15 15 16 17 13 7 5 5 2 5 7 8 5 13 13 7 9 8 11 6 5 3 3 5 7 7 6 5 7
13 14 14 14 14 13 13 13 12 12 11 11 11 11 12 13 14 14 15 16 17 17 9 3 3 3 4 6 5 6 12 13 10 9 8 8 5 3 2 2 3 6 10 10 8 7 9
15 15 15 15 15 15 14 14 13 13 12 12 12 13 13 14 15 15 15 15 17 11 3 2 2 2 4 8 6 8 9 8 8 6 7 5 2 8 1 6 11 12 12 10 6 5 6
17 17 17 17 16 15 15 14 14 13 13 13 14 14 15 16 16 15 14 14 9 4 2 2 2 2 6 5 5 5 9 7 7 4 2 2 3 2 4 10 6 5 7 6 5 7 8
18 19 18 18 18 17 16 16 15 14 14 14 15 17 17 17 16 14 12 7 4 4 3 2 1 5 8 4 4 6 3 4 8 6 3 3 6 4 7 12 8 7 3 3 6 5 5
19 18 19 19 19 18 17 17 16 16 16 16 17 17 18 17 15 11 8 2 3 2 3 3 4 5 6 6 5 7 5 7 5 9 8 9 8 10 9 10 8 8 4 3 5 7 8
19 19 19 19 19 19 19 19 18 17 18 19 20 18 20 16 11 9 2 2 5 5 6 5 5 3 6 8 7 8 8 8 9 10 9 13 11 14 15 11 5 2 2 1 4 8 8
20 20 20 20 21 21 21 21 20 19 20 20 20 21 20 13 7 3 4 3 5 4 1 2 2 4 3 2 7 10 9 5 7 8 6 9 14 13 2 3 5 4 2 4 5 6 7
21 21 21 21 21 22 22 22 22 21 21 22 23 22 17 9 1 1 2 4 0 5 5 5 1 1 3 8 4 10 11 4 6 8 12 11 12 7 8 10 10 8 5 3 6 7 8
20 21 21 22 22 23 23 23 23 23 23 24 26 22 15 4 1 1 1 1 5 4 4 6 6 5 6 3 5 5 9 3 5 6 8 8 4 11 11 12 11 10 4 2 1 6 4
21 22 23 23 23 24 24 24 24 24 24 25 26 22 12 4 4 3 2 7 1 4 2 3 5 4 3 5 7 9 10 6 3 7 8 6 8 12 12 11 9 3 1 5 5 8 9
22 23 24 24 24 25 25 26 26 26 26 26 26 18 9 1 4 4 3 3 4 7 3 4 3 4 7 5 5 9 8 9 2 5 8 1 1 7 12 12 10 4 6 5 6 7 10
22 23 24 24 25 25 26 28 28 28 27 27 25 14 6 5 1 1 4 5 6 3 3 4 2 3 3 7 7 9 9 9 5 8 9 10 12 9 7 11 10 11 11 8 6 6 6
22 22 25 24 24 25 26 28 29 29 29 29 21 10 3 7 3 2 6 7 4 2 2 3 2 4 5 5 5 5 7 7 5 7 3 7 10 14 13 16 10 15 16 10 4 6 6
23 24 24 25 25 25 26 28 30 30 30 29 15 2 3 3 5 7 6 8 1 2 1 2 6 5 6 6 3 8 3 1 3 3 6 4 3 8 6 11 10 13 11 13 5 12 6
23 24 23 25 24 25 25 27 30 30 30 23 7 5 4 2 6 6 6 2 4 1 2 5 4 3 3 5 6 6 6 4 1 2 4 2 3 7 7 6 9 11 9 9 9 4 5
25 26 24 24 23 23 24 27 29 30 30 17 4 4 3 6 3 5 7 4 4 4 3 3 2 4 0 1 4 5 5 6 3 2 4 5 6 7 10 10 9 8 11 9 2 6 3
23 24 26 23 23 22 23 25 27 29 30 13 5 6 5 6 6 3 7 4 1 5 5 4 3 4 4 0 4 5 3 4 4 3 3 4 6 6 6 3 4 9 12 12 6 8 3
22 22 25 24 22 20 21 22 24 25 26 11 5 2 5 5 7 8 4 6 4 7 9 7 5 3 1 3 4 3 2 3 3 2 6 3 4 6 12 10 6 8 7 12 12 11 12
21 20 22 23 20 18 18 20 22 24 23 5 4 4 5 5 4 9 10 10 9 6 6 4 1 4 6 7 4 2 5 3 0 2 3 4 4 9 7 8 4 4 7 8 12 12 12
19 18 19 20 18 15 15 17 21 23 20 2 3 0 5 7 10 11 7 3 12 8 8 7 6 9 5 4 5 6 4 6 5 4 2 5 6 5 4 2 4 5 0 1 5 8 8
17 17 17 16 15 14 12 14 18 23 15 3 4 4 1 6 3 11 9 12 12 11 10 12 10 10 6 4 3 2 5 4 4 3 1 2 1 6 3 3 3 9 5 4 6 1 0
14 15 16 14 13 11 10 12 15 19 13 4 3 3 4 3 8 10 12 15 11 4 9 9 11 8 9 5 0 3 2 2 3 5 1 4 1 5 5 6 4 10 9 5 3 2 5
12 13 13 11 10 10 11 8 11 13 12 4 3 5 4 8 7 11 6 11 10 9 10 10 9 13 6 10 8 4 3 3 3 1 4 4 4 3 2 6 11 5 3 1 3 1 2
13 12 11 9 9 9 9 6 9 10 8 4 3 4 3 7 9 11 11 10 6 7 11 8 5 2 13 8 4 4 7 9 8 3 3 3 6 4 7 11 3 6 5 6 6 7 3
13 12 10 9 8 8 8 4 6 8 7 4 4 3 4 5 6 10 6 9 8 7 8 7 3 11 8 4 3 5 4 2 4 6 4 4 5 7 6 9 8 6 6 1 1 9 9
12 12 10 9 8 9 8 4 5 7 6 4 3 2 5 5 10 6 7 7 1 4 7 9 8 7 6 6 6 3 3 1 4 5 5 8 7 10 9 9 5 6 6 4 8 3 5
12 11 10 9 8 9 8 7 5 6 6 3 3 4 4 4 10 8 10 8 5 4 7 6 7 4 6 6 4 3 4 5 5 0 3 5 5 5 4 5 8 9 7 6 5 4 4
11 11 11 9 8 9 9 7 5 6 6 4 4 3 6 6 8 13 16 18 17 10 5 4 4 11 6 6 2 2 4 4 7 6 4 6 4 5 4 4 4 7 4 4 2 5 4
Wind_Direction
30 29 27 25 23 25 22 20 17 12 6 0 353 348 344 341 339 338 337 334 330 330 331 328 342 357 343 202 50 342 172 157 156 164 187 196 199 204 192 123 149 118 103 92 122 137 144
27 26 25 22 21 20 18 16 11 6 0 354 350 346 339 338 335 334 333 330 327 327 329 336 349 357 261 102 9 59 139 154 167 175 172 201 209 302 112 142 306 115 102 111 132 114 134
25 24 21 19 20 16 15 12 7 2 357 351 347 344 341 338 333 331 330 327 326 333 356 20 16 352 252 71 111 88 134 146 154 191 183 179 219 249 149 121 129 132 123 122 137 143 102
25 24 20 18 17 16 13 9 7 0 354 349 344 342 339 334 330 328 330 327 337 13 82 66 22 264 74 144 131 112 117 133 164 159 202 197 249 262 261 104 156 198 183 192 124 174 151
21 22 20 19 17 15 12 8 4 1 354 349 344 341 338 332 330 327 330 346 31 65 81 56 311 276 97 156 199 188 176 142 159 162 155 199 237 231 174 197 180 187 222 186 155 201 165
20 21 19 20 19 16 10 6 2 360 357 351 346 342 337 331 327 327 341 78 80 40 347 262 263 231 152 77 111 147 151 139 150 157 151 192 210 210 214 215 227 173 207 204 163 175 207
18 17 17 16 14 14 9 5 3 359 354 351 346 342 337 330 325 327 17 273 213 176 212 350 3 8 110 98 138 160 153 145 149 186 182 192 207 213 192 225 13 39 334 1 124 168 197
15 15 15 15 12 10 6 3 2 358 353 349 346 341 338 330 324 343 45 340 43 357 285 147 290 260 215 242 131 158 178 202 189 177 178 179 222 202 73 183 224 231 170 111 120 158 243
14 12 10 9 9 6 5 2 359 357 355 352 347 342 341 333 294 46 295 30 192 337 255 132 166 264 113 205 104 166 200 169 181 175 202 205 205 107 199 195 216 227 267 139 348 184 229
8 7 6 4 5 2 1 359 357 355 353 351 346 342 342 351 130 237 181 331 290 266 221 110 160 133 171 244 130 153 212 271 191 186 199 226 117 203 205 210 229 220 198 218 222 256 309
6 4 3 1 1 359 357 356 354 352 351 348 345 338 336 212 306 250 80 329 159 226 257 102 111 119 174 258 132 170 201 232 178 167 228 131 186 202 215 219 212 337 214 192 273 272 285
4 1 360 358 357 357 354 354 353 351 350 346 339 332 327 297 232 255 310 313 241 232 104 139 145 184 202 170 145 144 194 227 20 177 224 74 278 219 225 224 217 112 203 224 255 271 261
359 358 357 354 353 354 352 351 351 349 348 343 336 322 284 205 43 258 290 240 232 281 157 136 105 187 197 136 144 179 182 192 218 209 193 188 204 205 232 219 213 208 224 236 233 222 258
353 352 352 352 350 350 350 349 348 347 347 342 336 318 265 212 245 265 247 238 253 97 196 127 244 184 172 172 131 161 177 209 191 267 248 230 175 201 199 232 200 216 234 251 255 277 315
349 348 347 349 347 347 348 346 347 346 346 341 337 299 225 227 232 227 250 236 128 172 42 254 181 219 148 158 276 203 206 75 32 288 289 198 152 163 224 219 250 191 235 278 278 287 257
345 345 345 345 345 345 347 346 345 344 346 341 330 242 161 239 167 216 248 327 161 237 273 228 260 264 213 146 205 230 193 97 58 344 285 53 202 179 160 198 220 277 225 215 230 276 265
342 346 343 342 343 343 345 345 346 345 346 343 250 234 101 163 208 230 237 137 173 160 232 248 215 204 301 216 274 190 149 125 1 89 271 308 265 132 174 209 186 187 221 248 256 288 291
329 337 337 337 340 342 344 346 349 351 351 5 291 227 136 166 218 236 211 187 29 184 180 203 268 304 276 203 206 214 207 348 11 321 295 17 289 180 157 97 211 297 282 180 181 271 250
318 328 330 332 337 340 344 348 352 356 3 331 308 299 180 218 225 211 157 199 240 213 205 196 214 273 259 246 251 249 175 94 355 326 352 358 267 235 186 172 175 214 228 263 279 127 253
309 316 325 326 333 338 345 350 352 352 351 342 281 221 169 212 273 275 194 215 210 208 235 225 208 231 209 217 211 242 223 132 157 356 348 258 264 290 298 343 110 177 228 234 261 259 255
300 307 317 320 327 334 346 347 348 349 350 330 235 51 352 192 209 223 225 233 217 197 221 211 192 232 221 231 227 232 231 188 176 136 241 293 275 282 319 282 242 144 114 221 259 339 315
297 303 307 314 321 333 345 346 348 350 357 271 301 322 266 289 233 220 184 218 234 232 201 203 235 196 209 246 266 253 250 237 290 161 282 283 256 259 173 137 242 217 208 146 261 57 84
289 291 299 310 317 332 333 344 350 354 11 313 351 252 280 174 219 221 212 230 225 225 221 253 216 202 216 235 172 32 338 338 3 292 305 287 286 249 232 174 225 218 189 207 276 172 301
278 280 295 302 309 325 336 334 350 353 16 346 337 294 263 253 230 229 236 230 221 219 248 212 216 224 99 119 127 162 189 195 202 181 283 258 259 267 235 220 230 77 122 313 273 220 116
268 274 286 288 299 318 333 346 349 345 347 341 311 289 280 260 262 247 236 234 244 240 226 224 158 43 150 160 214 234 220 222 216 250 222 262 257 205 260 226 194 164 190 205 233 177 167
261 269 273 278 290 305 314 339 346 339 328 310 284 251 280 293 241 259 280 241 244 221 184 158 85 165 180 196 202 240 246 295 219 175 242 214 235 266 226 274 252 46 99 156 256 250 157
259 264 264 268 282 293 302 297 330 331 320 284 276 242 267 259 266 262 231 260 178 236 213 151 154 178 213 200 217 241 219 230 234 226 168 203 242 245 232 244 254 106 134 171 227 78 119
256 261 260 264 274 285 297 280 308 315 295 266 284 215 239 272 280 263 257 253 229 237 220 134 149 196 181 215 240 168 248 187 244 321 229 232 235 208 242 260 250 136 146 242 70 122 114
260 261 261 260 272 282 295 284 289 291 275 247 261 215 232 244 291 304 272 267 261 268 308 199 356 164 183 211 211 161 204 185 243 233 182 236 253 344 273 41 88 168 49 104 196 138 118